Location: Recife
(8.0585°S, 34.8848°W)
Time: 10:11:06
(UTC-03:00)

Vanguard 2 Rocket - Pass Details

Date: 19 April 2026
Orbit: 553 x 3286 km, 32.9° (Epoch: 8 May)

Event Time Altitude Azimuth Distance (km) Brightness Sun altitude
Rises 14:05:28 0° 242° (WSW) 6,958 11.8 44.2°
Reaches altitude 10° 14:09:57 10° 245° (WSW) 6,101 11.7 43.2°
Maximum altitude 14:29:46 64° 321° (NW) 3,372 11.0 38.7°
Drops below altitude 10° 14:45:50 10° 40° (NE) 5,051 10.6 34.9°
Sets 14:49:11 0° 44° (NE) 5,753 10.8 34.2°
